Walnut Ridge Regional, AR

8:13 AM CDT on April 01, 2015 (GMT -0500)
Rural Ravenden Springs | | Change Station
CLOSE
Current Station
Personal Weather Station
Location: Ravenden Springs, AR
Elevation: 680 ft
Nearby Weather Stations
Active Advisory: Flood Warning

Elev 680 ft 36.31 °N, 91.20 °W | Updated 8 seconds ago

Partly Cloudy
Partly Cloudy
59.4 °F
Feels Like 59.4 °F
N
0.0
Wind Variable Wind from East
Gusts 0.0 mph

Today
High -- | Low -- °F
--% Chance of Precip.
Yesterday
High -- | Low -- °F
Precip. -- in
6:50 AM 7:25 PM
Waxing Gibbous, 92% visible
Pressure 30.01 in
Visibility 10.0 miles
Clouds Clear
Dew Point 33 °F
Humidity 37%
Rainfall 0.00 in
Snow Depth Not available.
UV 1 out of 12
Pollen 10.20 out of 12
Air Quality Not available.
Flu Activity Not available.
METAR KJBR 011253Z AUTO 11010KT 10SM CLR 15/12 A3001 RMK AO2 SLP161 T01500117 $

More Conditions Fewer Conditions

Pressure 30.01 in
Visibility 10.0 miles
Clouds Clear
Dew Point 33 °F
Humidity 37%
Rainfall 0.00 in
Snow Depth Not available.
UV 1 out of 12
Pollen 10.20 out of 12
Air Quality Not available.
Flu Activity Not available.
METAR KJBR 011253Z AUTO 11010KT 10SM CLR 15/12 A3001 RMK AO2 SLP161 T01500117 $

More Conditions Fewer Conditions

10-Day Weather Forecast

Almanac

Astronomy

Apr. 01, 2015 Rise Set
Actual Time
Civil Twilight
Nautical Twilight
Astronomical Twilight
Moon
Length of Visible Light
Length of Day
Tomorrow will be .
, % of the Moon is Illuminated

Today's Extremes

State Highs State Lows

Community

WunderPhotos

Upload Photos

1,809,949 photos uploaded!

WunderBlogs® & News

Nearby

Air Quality

  Air Quality AQ Index Pollutant
Not available.

Snow Depth

Station Depth Elevation

Earthquake Activity

City Distance Mag. Time & Date
Minimum magnitude displayed is 2.5.

Coastal Water Temperatures

Place Temperature

Stations

Nearby Weather Stations

Station Location Temp. Windchill Dew Point Humidity Wind Precip. Elev Updated Type
                   
Flood Warning
Statement as of 8:20 PM CDT on March 31, 2015

The Flood Warning continues for
the Black River at Black Rock.
* Until further notice... or until the warning is cancelled.
* At 7:00 PM Tuesday the stage was 19.6 feet.
* Minor flooding is occurring and minor flooding is forecast.
* Flood stage is 14.0 feet.
* Forecast... the river will continue to fall to a stage of 18.9 feet
by Thursday morning.
* Impacts at 17.0 feet... low lying cultivated land and pastures in Lawrence,
Jackson, and Independence counties flood.




             Fld observed forecast 7 am
location stg stg day time Wed Thu Fri Sat sun

Black River
Black Rock 14 19.6 Tue 07 PM 19.5 18.9 18.4 18.0 17.5




Lat... Lon 3570 9140 3591 9125 3612 9115 3610 9101
3588 9110 3564 9128